Volver al catálogo

COSMOS 970 DEB

ActivoLEO
NORAD 12861·DEBRIS·🇷🇺 Russia

Lanzado Dec 21, 1977 desde Baikonur Cosmodrome

Loading…

Próximos Pases (próximas 24 horas)

TLE

ActualizadoSource: Space-Track

Época: Sep 14, 2026, 16:32 UTC

1 12861U 77121AP  26257.68927140  .00000100  00000-0  30627-3 0  9997
2 12861  65.7739  39.9991 0105380 318.9943  54.3756 13.40576924282936

Sigue COSMOS 970 DEB en tiempo real con AllMySat

Download on the App Store